Wind_Speed
26 23 22 20 19 18 17 16 14 13 13 13 13 13 12 12 12 13 13 12 11 9 7 6 6 7 8 9 9 9 9 9 9 10 9 9 9 9 10 10 10 11 11 10 9 10 11 12 13 13 13 12 11 10 10 9 9 8 7 6 5 5
25 23 22 20 19 18 17 16 15 14 13 13 13 13 13 13 13 14 14 13 12 10 8 6 6 6 7 8 9 9 9 9 9 10 10 10 10 10 11 11 11 11 11 10 10 10 10 11 12 13 13 12 11 9 10 10 11 10 8 7 7 6
25 23 21 20 20 19 17 16 15 14 14 14 14 14 14 14 14 14 14 14 12 11 9 7 6 6 6 7 8 8 9 9 10 11 11 11 11 11 11 11 11 12 12 11 11 10 11 11 12 12 12 12 11 9 9 10 11 12 10 9 8 7
25 23 21 20 20 19 18 17 16 15 15 14 14 14 14 14 15 15 15 14 13 11 9 8 7 5 5 6 6 7 8 9 10 11 11 11 11 12 12 12 12 12 12 12 12 12 12 11 11 12 12 12 12 10 9 9 11 12 12 11 9 8
25 23 22 21 21 20 18 17 16 16 16 15 15 14 14 14 15 15 15 14 13 12 11 9 8 6 6 6 6 6 7 8 9 10 10 11 11 11 12 12 12 12 13 13 14 13 13 12 11 11 12 12 12 11 10 10 11 12 13 12 11 10
25 23 22 22 21 20 19 18 17 17 16 15 15 15 15 15 15 15 15 14 14 13 12 10 9 8 7 6 6 5 6 7 8 9 9 10 11 11 12 12 13 13 13 13 14 14 14 13 12 11 11 11 11 12 12 11 12 12 13 13 13 12
25 24 23 22 22 21 19 18 17 17 16 16 16 15 15 15 15 15 15 14 14 14 13 11 11 9 8 7 7 6 6 7 8 9 9 10 10 11 12 12 13 14 14 14 14 14 14 13 13 12 12 12 11 11 12 13 13 14 14 14 14 14
26 25 24 23 22 21 19 18 18 17 17 17 16 15 15 15 15 15 15 14 14 15 14 13 12 11 9 8 7 7 7 7 8 9 10 11 11 12 12 13 13 14 14 14 14 14 14 13 12 12 12 13 13 12 12 13 14 15 15 15 15 14
26 25 24 23 22 20 19 18 18 18 17 17 16 16 15 14 14 15 15 14 15 15 15 14 13 12 11 9 8 8 7 8 9 10 11 12 12 13 13 13 13 14 15 15 15 15 14 14 13 12 12 13 14 15 14 13 14 15 16 16 16 15
27 26 24 23 21 20 19 19 19 18 18 17 17 16 15 14 14 14 14 14 15 16 16 15 14 13 12 10 9 9 8 8 9 10 11 12 13 13 13 13 14 14 14 14 15 15 15 16 15 13 12 12 13 14 14 14 14 15 16 16 16 16
27 26 24 23 21 20 20 19 19 18 18 18 17 16 15 14 14 14 13 14 16 17 17 16 15 15 13 12 11 10 9 9 9 10 11 12 13 13 13 13 14 14 15 15 15 16 17 17 16 14 13 12 13 13 14 14 14 15 16 17 18 17
27 26 24 23 21 20 20 19 18 17 18 18 17 16 15 15 14 13 13 15 16 17 18 17 16 16 15 13 12 11 10 10 10 10 10 11 12 13 13 13 14 15 15 15 16 16 17 17 17 16 15 14 14 14 15 15 16 16 16 17 19 19
27 26 24 22 21 20 19 19 18 17 17 17 17 16 16 16 15 13 14 16 17 18 18 18 17 17 16 15 13 12 11 11 10 10 10 11 12 12 12 13 13 14 15 15 16 17 18 18 18 17 16 16 16 15 15 16 17 17 17 17 19 20
27 24 23 22 21 19 18 18 17 17 17 18 17 16 17 16 15 14 15 17 17 18 19 19 19 18 17 16 14 13 12 11 10 9 10 10 11 11 12 13 13 14 15 15 16 17 18 19 19 18 18 17 17 17 17 17 18 19 18 18 18 20
26 23 22 22 20 19 18 18 17 17 18 18 17 17 17 16 14 14 15 17 18 19 20 20 20 19 18 17 15 14 13 12 11 10 10 10 10 11 12 13 14 14 15 15 16 16 17 18 19 19 19 19 19 19 18 18 19 19 20 20 19 19
28 25 23 22 21 19 19 18 17 18 18 17 16 16 16 15 13 13 14 16 18 19 20 21 21 20 19 17 16 15 14 13 11 10 10 10 10 11 12 13 14 15 15 15 16 17 18 19 20 20 19 20 20 20 20 20 20 19 20 21 21 20
30 29 25 22 21 20 19 18 17 18 18 16 16 16 16 15 14 15 15 17 18 19 21 21 21 21 20 18 17 16 15 14 12 12 11 11 11 12 12 14 15 15 15 16 17 18 19 21 22 21 21 21 21 21 21 21 21 21 21 21 21 21
31 31 26 22 21 20 19 19 18 19 18 17 16 16 16 16 16 17 18 20 21 22 23 22 21 22 21 19 18 17 16 15 13 13 12 12 12 12 13 14 15 16 16 17 17 18 20 21 22 23 23 23 22 22 22 21 22 22 22 22 22 22
32 32 28 23 21 20 20 20 19 19 18 17 16 16 16 15 16 17 19 21 21 23 24 22 20 21 21 19 18 17 16 15 14 14 13 13 13 13 14 15 16 16 17 17 18 18 19 21 22 23 23 24 24 23 22 22 22 23 23 23 24 24
30 32 30 23 21 21 21 21 20 19 17 16 16 15 15 15 16 17 17 18 18 19 21 20 19 19 21 20 19 18 16 16 15 15 14 14 14 15 15 16 17 17 18 18 18 19 19 21 22 23 23 24 24 24 24 23 24 24 24 24 24 24
30 31 31 24 21 22 21 21 20 19 17 16 15 14 14 14 15 16 15 15 15 16 19 19 18 19 21 20 19 18 16 16 16 16 15 15 16 16 16 17 18 18 19 19 19 19 20 21 22 23 23 24 24 24 24 25 25 25 25 25 25 25
35 31 30 25 22 21 20 20 20 18 17 15 14 14 14 14 14 15 13 13 14 15 17 18 17 19 21 20 19 18 17 17 17 17 16 16 16 17 17 17 18 19 20 20 20 20 20 21 21 22 23 24 25 24 24 25 26 26 26 27 26 26
35 29 27 26 23 21 19 19 19 18 16 15 15 14 15 15 14 14 14 14 15 14 16 18 17 18 20 20 19 18 17 17 17 17 17 16 17 17 17 17 18 19 20 21 21 21 21 22 22 21 22 23 24 25 26 26 27 27 26 27 27 26
31 25 25 29 26 21 18 18 18 17 16 15 15 15 14 14 14 15 15 15 16 16 17 19 18 18 19 20 20 19 18 18 18 17 17 17 17 17 17 17 18 19 20 20 21 22 22 22 22 21 21 21 22 24 26 27 28 29 28 27 28 27
29 23 23 28 29 24 19 18 17 17 16 15 15 15 15 14 14 14 14 15 17 18 18 20 18 18 20 21 20 19 18 18 18 17 17 17 17 17 17 17 17 18 19 21 22 23 23 22 21 21 21 21 21 22 23 25 27 30 30 29 29 28
30 27 24 26 29 28 24 20 17 17 17 16 16 16 15 13 13 13 13 15 17 18 20 21 19 18 20 21 21 20 19 18 18 17 17 17 17 17 17 17 18 18 19 21 23 24 24 23 22 21 21 21 21 21 21 22 24 27 31 31 30 29
29 28 26 26 28 30 28 23 19 18 18 17 16 16 15 14 14 15 15 15 16 17 19 20 19 19 20 22 21 20 19 18 17 17 17 17 17 17 17 18 18 19 20 21 22 23 23 23 22 22 22 22 22 22 21 22 22 24 28 31 32 31
28 27 25 24 25 27 27 25 21 20 19 17 17 17 17 17 17 16 16 15 16 17 19 20 19 19 21 21 21 20 19 18 18 17 17 17 17 17 18 18 19 20 21 21 20 21 21 22 23 23 23 23 23 23 23 23 24 24 25 28 31 32
26 28 25 21 21 21 23 24 22 21 19 17 17 18 19 19 18 17 17 18 19 19 21 22 21 20 21 22 21 20 18 18 18 17 17 17 17 18 19 19 20 20 20 20 19 20 22 23 23 24 25 25 25 25 25 25 25 25 26 26 28 30
24 25 26 23 20 18 19 21 21 20 18 17 18 18 19 19 19 19 19 21 20 20 22 24 22 21 22 22 21 19 18 18 18 17 16 17 17 18 19 20 20 20 20 20 20 22 24 25 25 25 26 26 27 27 27 28 27 27 27 26 27 29
23 22 24 23 21 19 18 19 20 19 17 17 17 17 18 19 20 20 21 21 20 19 21 21 20 20 22 22 20 19 19 19 18 17 17 17 18 19 20 20 20 20 19 20 22 24 26 26 26 26 26 26 27 27 28 28 29 29 28 28 27 28
21 20 21 21 21 19 17 17 18 19 18 17 16 16 17 19 20 21 20 20 18 18 20 18 17 20 22 22 20 19 19 19 18 17 17 17 18 19 20 20 20 20 20 22 24 26 27 27 26 25 25 25 26 27 27 28 29 29 29 29 27 27
15 19 20 20 19 17 15 15 17 18 18 16 15 17 19 20 21 20 20 19 17 18 21 17 16 20 22 22 20 19 19 19 18 17 17 18 19 20 20 20 20 21 22 23 25 26 27 26 25 24 24 25 26 27 28 28 29 29 29 28 27 26
8 15 19 18 17 15 15 16 18 18 17 16 16 18 20 21 21 21 21 19 16 19 21 16 16 21 23 22 21 19 19 18 17 18 18 19 20 20 20 20 21 22 23 25 25 26 26 25 24 24 24 25 26 28 29 29 30 29 29 28 28 27
5 9 13 15 15 15 15 17 18 17 15 15 15 16 18 19 20 21 22 19 18 21 22 18 18 21 22 21 20 19 18 18 18 19 19 19 20 20 20 21 22 24 24 25 25 24 24 24 24 24 24 26 28 29 29 29 29 29 29 29 28 28
7 8 11 13 14 14 15 17 17 16 15 14 14 15 16 17 19 22 22 20 19 21 22 19 19 20 22 20 19 18 17 18 19 19 20 20 20 20 21 23 24 25 25 24 24 23 23 24 24 25 26 27 28 29 29 28 28 29 29 30 29 29
9 9 10 12 14 15 16 18 18 16 15 14 14 15 15 17 19 21 21 20 19 20 21 20 20 21 21 19 18 18 18 19 19 20 20 20 21 21 22 24 25 25 25 24 24 23 24 24 25 26 27 28 28 28 28 28 28 29 29 30 31 31
Wind_Direction
284 281 279 274 270 267 266 265 264 262 259 258 257 259 260 260 259 259 260 259 260 261 268 287 301 319 340 352 358 359 358 357 355 354 352 351 348 346 348 350 354 356 358 3 7 9 9 10 9 11 15 21 23 14 8 7 7 11 3 350 342 329
279 276 274 269 266 265 264 262 261 259 257 256 255 256 258 258 258 258 257 256 256 257 264 275 284 308 336 348 356 359 359 357 355 353 350 349 348 344 344 345 347 348 350 352 354 356 358 1 1 2 7 14 23 19 6 0 0 4 4 355 345 337
273 272 269 264 263 263 261 260 259 256 255 254 253 253 255 257 256 256 255 253 254 256 261 265 271 297 327 341 351 356 357 358 357 355 351 347 345 342 340 340 342 342 343 344 345 346 348 351 353 355 358 4 13 20 9 354 353 355 358 359 350 341
270 267 264 261 260 259 259 258 257 254 253 252 250 251 253 255 255 255 254 253 254 257 258 259 265 282 308 328 342 350 355 358 359 356 352 347 343 340 337 336 336 336 338 339 340 341 342 345 347 350 352 355 360 11 13 353 346 347 349 354 352 346
265 263 259 258 257 256 256 256 254 252 252 250 249 250 251 253 255 256 255 255 255 257 257 256 259 269 287 309 327 342 352 357 357 354 350 346 343 340 336 334 333 332 333 334 335 337 339 341 344 346 346 349 351 359 9 358 346 343 343 346 348 347
262 259 257 256 255 254 253 253 252 251 251 250 248 249 250 253 256 257 257 257 257 257 255 255 256 262 275 293 311 329 346 352 352 349 348 346 341 339 337 336 333 332 332 331 332 334 335 336 338 342 342 342 346 350 358 360 352 345 342 343 344 342
259 256 254 254 253 252 252 251 251 251 251 250 249 248 249 252 256 258 259 258 257 256 254 254 256 260 269 282 297 314 332 342 344 345 347 345 342 340 340 338 335 334 332 330 330 332 333 332 333 337 337 337 341 345 350 354 352 347 344 344 344 341
257 254 252 251 251 251 251 250 250 251 251 250 248 248 249 252 256 258 259 259 256 253 253 254 256 259 265 275 288 302 317 330 335 341 344 345 345 344 342 340 337 335 332 330 330 330 330 330 329 330 331 333 337 341 345 348 346 344 343 343 344 342
255 252 250 250 250 250 249 248 248 249 250 250 249 248 249 252 256 259 259 259 256 253 253 254 255 258 262 270 281 291 305 318 326 334 340 344 346 344 343 341 340 336 333 332 330 327 326 326 326 327 328 330 334 337 339 341 341 340 339 340 340 340
251 249 247 247 247 247 247 246 246 248 249 249 250 250 250 252 255 258 259 259 257 255 256 257 257 258 260 266 273 282 295 306 315 326 334 340 342 341 341 341 341 339 337 335 332 328 327 326 325 325 325 326 328 329 332 333 335 335 333 333 334 334
248 246 244 244 244 244 244 244 245 246 249 250 252 253 252 254 255 257 259 258 256 256 258 259 259 259 259 261 265 274 286 296 307 319 328 333 337 338 339 341 342 341 340 338 335 334 332 329 325 321 318 319 320 321 323 326 329 331 330 329 328 329
244 242 241 241 242 242 242 243 245 246 249 252 254 255 255 255 255 257 258 258 256 255 256 257 258 259 259 260 263 269 278 288 300 313 320 327 333 335 338 341 341 339 338 336 336 336 335 331 327 321 316 314 316 318 321 323 325 328 329 328 327 326
240 239 239 240 241 241 242 244 245 246 248 252 254 254 256 256 256 257 257 258 256 255 256 255 256 257 258 260 263 269 275 282 292 304 311 320 328 332 335 336 337 336 335 337 340 341 339 335 330 324 318 314 314 316 320 322 323 326 328 328 326 326
235 237 238 240 241 241 242 243 243 245 247 250 252 252 255 257 258 258 258 260 260 259 259 257 255 254 254 255 258 263 267 273 281 291 299 311 321 325 328 329 332 333 334 339 344 344 341 337 333 327 322 317 315 315 318 320 323 325 326 327 326 325
230 234 239 240 241 239 239 240 241 243 246 248 250 252 256 260 263 265 266 268 268 266 263 260 257 254 251 251 252 256 259 264 270 277 286 299 311 316 320 324 327 331 334 339 343 342 340 338 336 333 328 323 319 317 317 319 323 324 325 326 327 326
226 228 236 238 237 237 238 240 242 244 246 248 250 253 257 260 262 263 265 267 269 268 266 264 261 255 250 249 250 252 255 257 262 267 275 287 299 308 315 319 322 326 332 337 340 341 339 338 337 336 333 329 325 322 319 319 322 323 325 326 327 327
224 222 229 235 235 237 241 242 244 245 246 246 246 248 251 253 253 251 251 253 255 255 256 259 261 257 250 248 249 250 253 255 259 263 270 281 291 302 309 313 315 319 326 332 337 339 340 339 337 336 335 333 330 326 322 320 321 322 324 325 325 325
225 220 223 231 234 238 243 243 242 243 243 242 242 246 250 253 253 252 252 252 252 250 247 246 250 254 251 248 249 249 252 255 258 262 268 276 285 294 301 306 310 313 318 325 331 334 337 337 336 335 334 333 331 327 323 320 319 320 321 322 322 323
230 224 220 226 231 237 242 241 241 242 242 243 244 248 252 256 258 261 263 264 264 262 254 242 237 247 249 248 248 249 252 255 257 261 265 273 280 287 294 300 305 308 312 319 324 328 332 334 334 334 332 331 329 326 323 319 317 317 318 319 320 322
232 225 219 221 228 236 241 241 242 243 243 245 247 251 256 261 266 271 273 276 273 266 257 241 228 237 245 245 247 249 252 255 258 261 265 271 276 282 289 295 300 304 309 314 318 321 325 330 331 331 329 327 326 324 321 318 316 316 316 317 319 321
229 225 219 218 227 236 242 242 243 244 243 245 249 254 260 266 272 275 277 278 273 262 254 240 223 229 239 242 246 248 251 255 259 262 265 270 274 279 286 293 298 304 308 310 313 317 320 325 327 327 325 323 322 321 318 315 315 316 316 317 319 322
229 232 224 219 229 238 243 243 243 244 244 246 250 253 260 266 270 273 273 271 269 261 251 238 223 226 237 241 245 248 251 255 259 261 264 268 273 278 285 292 299 304 307 309 312 315 317 319 321 322 321 320 319 318 316 314 313 315 316 316 318 322
230 236 233 226 233 241 244 246 245 246 247 250 253 256 261 266 269 272 271 267 266 259 246 238 229 228 237 242 244 247 250 255 258 260 263 267 273 279 285 291 298 304 307 309 310 312 314 316 317 318 317 316 317 317 316 315 314 314 314 314 316 320
229 238 241 232 234 240 244 247 248 250 251 252 256 260 263 268 274 276 273 268 264 257 245 240 234 230 238 244 245 248 251 255 258 261 265 269 275 280 285 291 298 304 306 308 309 310 312 314 315 315 313 313 314 314 314 315 315 313 313 313 314 318
228 240 246 237 236 239 242 245 248 251 253 254 258 262 266 272 278 278 276 273 267 257 245 241 236 231 239 245 247 250 253 256 259 262 266 270 275 280 285 292 298 303 305 307 309 310 312 313 313 312 311 311 311 311 312 313 312 311 311 313 314 317
234 242 249 246 242 240 241 242 244 249 253 256 259 263 268 271 270 269 273 276 271 260 247 241 238 233 238 246 249 252 254 257 260 262 266 271 275 280 286 293 298 302 306 308 310 310 311 311 312 312 311 310 310 310 309 309 309 310 311 313 315 317
243 245 250 253 246 240 239 239 240 246 251 254 257 259 261 261 259 259 263 265 265 260 248 243 239 234 240 247 251 254 255 257 260 262 267 271 276 281 288 294 299 304 307 309 309 308 308 309 311 311 310 309 309 309 308 308 309 311 312 313 315 316
249 248 249 250 245 240 241 240 240 244 249 253 256 257 258 258 257 257 257 255 252 249 245 245 244 239 243 249 252 254 255 257 259 262 267 272 277 284 290 295 300 304 306 307 307 307 308 308 309 310 310 309 309 310 310 311 312 312 313 313 314 315
255 248 243 241 238 240 242 241 241 243 248 252 254 257 258 257 256 253 251 249 245 241 241 247 247 243 245 250 252 254 255 257 259 262 267 273 281 288 293 297 300 304 306 308 309 310 309 309 309 309 310 311 311 312 313 313 313 313 312 311 312 313
258 244 234 234 236 239 239 238 238 240 245 251 255 257 256 256 253 247 246 247 247 245 244 243 241 242 247 251 252 254 256 258 259 264 270 277 285 290 294 297 301 305 309 311 312 311 310 309 309 310 311 312 313 314 315 314 313 312 311 311 311 311
246 232 226 231 233 233 234 234 235 235 240 250 256 256 253 253 249 246 246 246 248 250 244 235 231 239 247 250 252 254 256 258 262 267 273 281 288 292 295 298 302 307 310 312 313 312 310 310 310 311 312 313 313 313 313 312 312 312 312 311 311 310
230 224 221 225 225 227 232 233 230 228 234 243 248 249 248 247 245 246 244 243 249 248 235 224 226 237 245 249 252 254 257 260 264 270 278 286 291 293 296 299 303 308 311 312 312 311 310 309 310 311 312 313 311 311 310 310 311 311 311 311 310 309
228 223 220 220 221 226 232 231 225 223 227 232 238 243 245 244 244 245 240 240 247 238 225 222 227 236 245 249 253 255 258 263 269 277 285 290 292 294 297 301 305 309 311 312 311 310 309 309 310 311 313 312 311 311 310 310 310 310 310 310 309 308
229 218 217 218 221 228 230 226 221 219 220 225 234 241 246 247 244 241 237 235 233 228 229 230 226 234 246 250 253 257 261 268 276 283 288 291 292 294 298 302 306 308 310 311 310 310 310 310 311 312 313 312 311 311 311 311 310 310 310 310 309 308
217 205 211 216 223 227 223 217 214 213 215 221 231 241 249 249 242 236 234 228 222 228 237 236 226 235 246 250 255 260 266 275 281 285 288 290 292 294 299 303 305 308 309 310 311 311 311 311 312 312 312 311 310 310 310 310 310 310 310 310 310 310
220 208 215 222 226 224 216 210 206 207 213 220 232 243 249 249 239 231 229 224 219 228 238 236 229 237 245 251 258 264 272 279 282 286 289 290 292 295 300 303 305 307 308 309 310 310 310 311 311 311 311 310 309 309 309 309 309 310 310 310 311 311
226 221 225 227 226 219 211 206 203 205 214 223 233 239 243 244 234 223 222 221 217 223 236 239 235 238 246 253 260 266 273 278 281 285 287 289 292 295 299 302 304 306 307 307 307 306 308 310 310 310 309 308 308 308 308 308 308 308 309 310 311 312
Height
5862 5862 5862 5862 5861 5861 5861 5861 5861 5861 5861 5861 5861 5861 5861 5861 5861 5861 5861 5861 5861 5861 5861 5861 5860 5860 5859 5859 5858 5857 5857 5856 5855 5854 5853 5852 5851 5850 5849 5848 5847 5846 5845 5844 5843 5842 5841 5840 5838 5837 5836 5835 5833 5831 5830 5829 5828 5827 5826 5825 5825 5824
5860 5860 5860 5860 5860 5859 5859 5859 5859 5859 5859 5860 5860 5860 5859 5859 5860 5860 5860 5860 5860 5860 5860 5860 5860 5859 5859 5859 5858 5857 5856 5855 5854 5854 5853 5852 5851 5850 5849 5848 5847 5846 5845 5844 5843 5842 5841 5839 5838 5837 5836 5834 5833 5831 5829 5828 5827 5826 5825 5824 5824 5823
5858 5858 5858 5858 5857 5857 5857 5857 5857 5858 5858 5858 5858 5858 5858 5858 5858 5858 5859 5859 5859 5859 5859 5859 5859 5859 5859 5858 5858 5857 5856 5855 5854 5854 5853 5852 5851 5850 5849 5847 5846 5845 5844 5843 5842 5841 5840 5839 5838 5837 5835 5834 5833 5832 5830 5828 5826 5825 5825 5824 5823 5822
5855 5855 5855 5855 5855 5855 5855 5856 5856 5856 5856 5857 5857 5857 5857 5857 5857 5857 5857 5858 5858 5858 5858 5858 5858 5859 5859 5858 5857 5856 5856 5855 5854 5853 5853 5852 5851 5850 5848 5847 5846 5845 5844 5843 5842 5841 5840 5839 5837 5836 5835 5833 5832 5831 5830 5828 5826 5825 5824 5823 5822 5822
5852 5853 5853 5853 5853 5853 5853 5854 5854 5854 5855 5855 5856 5856 5856 5856 5856 5856 5856 5857 5857 5857 5857 5857 5857 5858 5858 5858 5857 5856 5856 5855 5854 5853 5852 5851 5850 5849 5848 5847 5846 5845 5844 5842 5841 5840 5839 5838 5837 5836 5834 5833 5832 5831 5830 5828 5826 5825 5824 5823 5822 5821
5850 5851 5851 5851 5851 5851 5851 5852 5852 5853 5853 5854 5854 5854 5854 5854 5854 5855 5855 5856 5856 5856 5856 5856 5856 5857 5857 5857 5857 5856 5855 5855 5854 5853 5852 5851 5850 5849 5848 5847 5846 5845 5843 5842 5840 5839 5838 5837 5836 5835 5834 5832 5831 5830 5829 5828 5827 5825 5824 5822 5821 5820
5848 5848 5849 5849 5849 5849 5849 5850 5851 5851 5852 5852 5853 5853 5853 5853 5853 5854 5854 5854 5854 5854 5854 5855 5855 5855 5856 5856 5855 5855 5855 5854 5853 5853 5852 5851 5850 5849 5848 5847 5846 5844 5843 5842 5840 5839 5837 5836 5835 5834 5832 5831 5831 5829 5828 5827 5826 5825 5823 5822 5821 5819
5845 5846 5846 5847 5846 5847 5847 5848 5849 5850 5850 5851 5851 5851 5852 5852 5852 5853 5853 5853 5853 5853 5853 5854 5854 5854 5854 5854 5854 5854 5853 5853 5852 5852 5851 5850 5849 5848 5847 5846 5845 5844 5843 5841 5840 5839 5837 5836 5834 5833 5832 5830 5829 5828 5828 5827 5826 5824 5823 5821 5820 5819
5843 5844 5844 5844 5844 5845 5845 5846 5847 5847 5848 5849 5849 5850 5850 5851 5852 5852 5852 5852 5852 5852 5852 5852 5853 5853 5853 5853 5853 5852 5852 5852 5851 5850 5850 5849 5848 5847 5846 5846 5845 5843 5842 5841 5839 5838 5837 5836 5834 5832 5831 5829 5828 5827 5826 5826 5825 5824 5822 5821 5820 5818
5840 5841 5841 5842 5842 5843 5843 5844 5844 5845 5846 5847 5848 5848 5849 5850 5851 5851 5851 5851 5851 5851 5851 5851 5851 5851 5852 5852 5852 5851 5851 5850 5850 5849 5848 5848 5847 5846 5845 5844 5843 5842 5841 5840 5838 5837 5836 5834 5833 5832 5830 5829 5828 5827 5826 5825 5824 5823 5821 5820 5819 5818
5838 5838 5839 5839 5839 5840 5841 5842 5842 5844 5845 5845 5846 5847 5849 5849 5850 5850 5850 5850 5849 5849 5849 5849 5850 5850 5850 5850 5850 5850 5850 5849 5849 5848 5847 5846 5846 5845 5844 5843 5842 5841 5840 5838 5837 5836 5834 5833 5832 5832 5831 5829 5828 5827 5826 5824 5823 5822 5821 5819 5818 5817
5835 5835 5836 5837 5837 5838 5839 5840 5841 5842 5843 5844 5845 5846 5847 5848 5848 5849 5849 5849 5848 5848 5848 5848 5848 5849 5849 5849 5849 5849 5848 5848 5847 5847 5846 5845 5845 5844 5843 5842 5841 5840 5838 5837 5836 5834 5833 5832 5832 5831 5830 5829 5827 5826 5825 5824 5822 5821 5820 5819 5817 5815
5831 5833 5834 5835 5835 5837 5838 5839 5839 5841 5841 5842 5843 5844 5844 5845 5846 5847 5847 5847 5847 5847 5847 5847 5847 5847 5847 5847 5847 5847 5847 5846 5846 5845 5845 5844 5844 5843 5842 5841 5840 5839 5838 5836 5835 5834 5833 5831 5830 5829 5829 5828 5827 5825 5824 5823 5821 5820 5819 5818 5816 5814
5829 5832 5833 5833 5834 5835 5836 5837 5837 5839 5839 5839 5840 5841 5842 5842 5844 5845 5845 5845 5846 5846 5846 5846 5846 5846 5846 5846 5846 5846 5846 5845 5845 5844 5844 5844 5843 5842 5842 5841 5840 5839 5837 5836 5834 5833 5832 5831 5830 5829 5828 5826 5825 5824 5823 5822 5820 5819 5818 5817 5815 5813
5828 5831 5832 5832 5833 5834 5834 5834 5835 5836 5836 5837 5838 5838 5839 5840 5842 5843 5844 5844 5845 5845 5845 5845 5845 5845 5845 5845 5845 5845 5845 5844 5844 5843 5843 5843 5842 5842 5841 5840 5839 5838 5837 5835 5834 5833 5831 5830 5829 5828 5827 5825 5824 5823 5822 5821 5819 5818 5816 5815 5814 5812
5826 5828 5829 5830 5830 5832 5831 5832 5833 5833 5834 5835 5836 5836 5837 5838 5840 5840 5841 5842 5842 5843 5844 5844 5845 5844 5844 5844 5844 5844 5844 5843 5843 5842 5842 5842 5841 5841 5840 5839 5838 5837 5836 5834 5833 5832 5831 5830 5829 5827 5826 5825 5823 5822 5820 5819 5818 5816 5814 5813 5811 5810
5821 5823 5825 5827 5828 5830 5830 5830 5831 5831 5832 5833 5833 5834 5834 5835 5837 5837 5838 5838 5839 5840 5841 5842 5843 5843 5843 5843 5843 5843 5843 5842 5841 5841 5840 5840 5840 5839 5838 5838 5837 5836 5835 5833 5832 5831 5829 5828 5827 5826 5825 5823 5822 5821 5819 5818 5816 5814 5813 5811 5810 5808
5818 5819 5822 5824 5826 5827 5827 5828 5829 5829 5829 5830 5831 5832 5832 5833 5834 5835 5835 5835 5835 5835 5836 5838 5840 5841 5842 5842 5841 5841 5841 5840 5840 5839 5838 5838 5838 5837 5837 5836 5835 5834 5833 5832 5831 5830 5828 5827 5826 5825 5823 5822 5821 5819 5818 5816 5814 5813 5811 5809 5808 5807
5815 5816 5818 5821 5823 5824 5824 5825 5826 5826 5827 5828 5829 5830 5831 5831 5832 5832 5832 5832 5832 5832 5833 5834 5836 5838 5840 5840 5839 5839 5839 5838 5838 5837 5837 5836 5836 5836 5835 5834 5834 5833 5832 5831 5830 5829 5828 5827 5825 5824 5822 5821 5820 5818 5816 5815 5813 5811 5809 5808 5806 5805
5811 5813 5815 5817 5820 5821 5822 5823 5824 5825 5825 5826 5826 5827 5828 5829 5829 5829 5830 5830 5830 5831 5831 5832 5833 5835 5837 5837 5837 5837 5837 5836 5836 5835 5835 5834 5834 5834 5833 5832 5832 5831 5831 5831 5830 5829 5827 5826 5824 5823 5821 5820 5819 5817 5815 5813 5811 5809 5808 5806 5805 5804
5807 5809 5811 5814 5817 5818 5819 5821 5822 5823 5823 5824 5824 5825 5826 5826 5827 5827 5828 5828 5829 5829 5831 5831 5831 5833 5835 5835 5835 5835 5834 5834 5834 5833 5833 5833 5832 5832 5831 5831 5830 5830 5829 5829 5828 5827 5826 5824 5823 5821 5820 5818 5817 5816 5814 5811 5809 5808 5806 5805 5803 5803
5805 5807 5810 5813 5814 5815 5817 5818 5820 5820 5821 5821 5822 5823 5823 5824 5825 5825 5826 5826 5827 5828 5829 5830 5830 5831 5832 5832 5832 5832 5832 5832 5832 5832 5831 5831 5831 5830 5830 5829 5828 5828 5827 5827 5826 5826 5824 5823 5822 5820 5818 5817 5815 5814 5813 5811 5808 5807 5805 5802 5801 5801
5804 5807 5809 5812 5812 5812 5814 5816 5817 5818 5818 5819 5820 5820 5821 5822 5822 5823 5824 5825 5825 5826 5827 5828 5828 5829 5830 5830 5830 5830 5830 5830 5830 5830 5830 5830 5829 5829 5828 5828 5827 5826 5826 5825 5824 5824 5823 5821 5820 5819 5817 5816 5814 5812 5810 5808 5806 5805 5803 5801 5800 5799
5803 5806 5807 5809 5809 5811 5812 5814 5815 5815 5816 5816 5817 5818 5819 5820 5821 5821 5822 5823 5823 5824 5825 5826 5826 5826 5828 5828 5828 5828 5827 5828 5828 5828 5828 5828 5827 5827 5827 5826 5825 5825 5824 5823 5822 5822 5821 5820 5818 5817 5816 5815 5813 5811 5809 5807 5804 5801 5800 5799 5798 5798
5801 5803 5805 5806 5807 5809 5810 5811 5812 5812 5813 5814 5815 5815 5816 5818 5819 5820 5821 5821 5821 5822 5823 5823 5823 5824 5825 5826 5826 5826 5825 5825 5826 5826 5826 5826 5826 5826 5825 5825 5824 5823 5822 5821 5820 5819 5818 5817 5816 5815 5814 5813 5812 5811 5809 5807 5804 5799 5797 5797 5796 5795
5798 5800 5802 5804 5805 5807 5808 5809 5810 5810 5811 5811 5812 5813 5814 5816 5818 5818 5819 5819 5820 5820 5821 5821 5821 5822 5823 5824 5824 5824 5824 5824 5824 5824 5824 5824 5824 5824 5824 5823 5823 5822 5821 5819 5818 5816 5815 5814 5813 5812 5811 5810 5809 5808 5807 5805 5804 5800 5795 5793 5793 5792
5795 5798 5800 5801 5802 5804 5805 5807 5807 5808 5808 5809 5810 5811 5812 5814 5815 5816 5817 5817 5817 5818 5819 5820 5820 5820 5821 5823 5823 5822 5822 5822 5822 5822 5822 5822 5822 5822 5822 5821 5821 5820 5819 5818 5816 5815 5813 5811 5810 5809 5808 5807 5806 5805 5804 5803 5802 5800 5796 5791 5789 5789
5791 5794 5797 5798 5799 5801 5802 5804 5805 5805 5806 5806 5807 5809 5810 5812 5813 5814 5814 5814 5815 5816 5817 5819 5819 5819 5820 5821 5821 5821 5821 5821 5820 5820 5820 5820 5820 5820 5820 5820 5819 5818 5817 5816 5814 5813 5811 5810 5808 5806 5805 5804 5803 5801 5800 5799 5798 5797 5796 5791 5787 5785
5788 5790 5793 5795 5796 5798 5799 5800 5801 5802 5803 5804 5805 5807 5808 5810 5811 5811 5811 5811 5812 5813 5815 5817 5817 5818 5819 5820 5820 5819 5819 5819 5819 5818 5818 5818 5818 5818 5818 5818 5817 5816 5815 5813 5812 5811 5809 5808 5806 5804 5802 5800 5799 5798 5796 5796 5795 5794 5793 5791 5787 5784
5785 5787 5789 5791 5793 5795 5796 5797 5798 5799 5800 5801 5803 5804 5806 5807 5808 5808 5809 5809 5810 5812 5813 5814 5815 5817 5818 5818 5818 5818 5817 5817 5817 5816 5816 5816 5816 5816 5816 5815 5815 5813 5812 5810 5809 5808 5806 5805 5803 5801 5799 5797 5796 5794 5793 5792 5791 5790 5789 5788 5787 5784
5782 5783 5786 5788 5790 5792 5792 5794 5795 5796 5798 5799 5800 5802 5803 5804 5804 5805 5806 5806 5808 5810 5811 5811 5813 5815 5816 5816 5816 5816 5815 5815 5815 5814 5814 5814 5814 5814 5814 5813 5812 5811 5809 5808 5806 5805 5804 5802 5800 5798 5797 5795 5794 5792 5791 5789 5787 5786 5786 5785 5784 5782
5780 5782 5784 5786 5787 5789 5790 5791 5792 5794 5795 5796 5798 5799 5800 5801 5801 5802 5803 5804 5807 5809 5809 5809 5811 5813 5814 5814 5814 5814 5814 5813 5813 5812 5812 5812 5812 5812 5812 5811 5810 5809 5807 5806 5804 5803 5801 5799 5798 5796 5794 5793 5792 5790 5789 5787 5785 5784 5783 5782 5781 5779
5778 5780 5782 5784 5785 5787 5788 5789 5790 5791 5792 5794 5795 5796 5796 5797 5798 5799 5801 5802 5805 5806 5807 5807 5809 5811 5812 5812 5812 5812 5812 5811 5811 5810 5810 5810 5810 5810 5810 5809 5808 5806 5805 5803 5802 5800 5799 5797 5796 5794 5792 5791 5789 5788 5786 5785 5783 5781 5780 5779 5778 5777
5777 5778 5780 5782 5784 5785 5785 5786 5787 5788 5790 5791 5792 5793 5793 5795 5796 5797 5798 5800 5802 5804 5805 5805 5806 5808 5810 5810 5810 5810 5810 5809 5809 5809 5808 5808 5808 5808 5808 5806 5805 5804 5802 5801 5799 5798 5796 5795 5793 5792 5790 5788 5787 5785 5784 5782 5780 5778 5777 5776 5774 5773
5776 5777 5779 5781 5782 5782 5783 5783 5784 5786 5788 5789 5790 5790 5791 5792 5793 5794 5796 5798 5800 5802 5804 5804 5805 5806 5807 5808 5808 5808 5808 5808 5808 5807 5807 5807 5807 5806 5805 5804 5803 5802 5800 5799 5797 5796 5794 5793 5791 5789 5788 5786 5785 5783 5781 5779 5777 5775 5774 5772 5771 5770
5775 5776 5778 5779 5780 5780 5781 5781 5783 5784 5786 5787 5787 5788 5788 5789 5790 5792 5794 5797 5799 5800 5802 5803 5803 5804 5805 5806 5806 5806 5806 5806 5806 5806 5806 5805 5805 5804 5803 5802 5801 5799 5798 5796 5795 5793 5792 5791 5789 5787 5786 5784 5782 5781 5779 5777 5775 5773 5771 5769 5768 5766
5774 5775 5776 5776 5777 5778 5779 5780 5781 5782 5784 5784 5785 5785 5786 5786 5787 5789 5792 5795 5796 5798 5800 5801 5801 5802 5803 5804 5804 5804 5805 5805 5805 5804 5804 5803 5803 5802 5801 5800 5799 5797 5795 5794 5793 5791 5790 5789 5787 5785 5783 5782 5780 5778 5776 5774 5772 5770 5768 5766 5764 5763